Weather History for St. Petersburg Airport, FL

Change the Weather History Date:

Sunday, January 8, 2012

  Actual Average Record
Temperature  
Mean Temperature 64 °F -  
Max Temperature 77 °F 72 °F 81 °F (2013)
Min Temperature 51 °F 57 °F 33 °F (1970)
Degree Days  
Heating Degree Days 1    
Growing Degree Days 14 (Base 50)    
Moisture  
Dew Point 52 °F    
Average Humidity 83    
Maximum Humidity 100    
Minimum Humidity 37    
Precipitation  
Precipitation 0.00 in - - ()
Sea Level Pressure  
Sea Level Pressure 30.20 in    
Wind  
Wind Speed 1 mph (NE)    
Max Wind Speed 6 mph    
Max Gust Speed -    
Visibility 5 miles    
Events Fog    
Averages and records for this station are not official NWS values.
T = Trace of Precipitation, MM = Missing Value Source: NWS Daily Summary

Daily Weather History Graph

Daily Weather History Graph

Search for Another Location

Airport:

Trip Planner

Search our weather history database for the weather conditions in past years. The results will help you decide how hot, cold, wet, or windy it might be!

Date:

Astronomy

Jan. 08, 2012 Rise Set
Actual Time 7:23 AM EST 5:51 PM EST
Civil Twilight 6:57 AM EST 6:17 PM EST
Nautical Twilight 6:28 AM EST 6:46 PM EST
Astronomical Twilight 6:00 AM EST 7:14 PM EST
Moon 5:32 PM EST (1/8) 6:40 AM EST (1/8)
Length of Visible Light 11h 19m
Length of Day
10h 28m
Full, 100% of the Moon is Illuminated
Jan 8
Full
Jan 9
Full
Jan 16
Last Quarter
Jan 23
New
Jan 30
First Quarter

Hourly Weather History & Observations

Time (EST) Temp. Dew Point Humidity Pressure Visibility Wind Dir Wind Speed Gust Speed Precip Events Conditions
12:53 AM 55.0 °F 53.1 °F 93% 30.19 in 4.0 mi Calm Calm - N/A   Clear
12:56 AM 55.4 °F 53.6 °F 94% 30.19 in 1.2 mi Calm Calm - N/A   Clear
1:08 AM 53.6 °F 53.6 °F 100% 30.19 in 3.0 mi Calm Calm - N/A   Clear
1:32 AM 55.4 °F 53.6 °F 94% 30.19 in 0.8 mi Calm Calm - N/A   Clear
1:53 AM 54.0 °F 53.1 °F 97% 30.19 in 0.5 mi Calm Calm - N/A Fog Fog
2:02 AM 53.6 °F 51.8 °F 94% 30.19 in 2.5 mi Calm Calm - N/A   Clear
2:06 AM 53.6 °F 53.6 °F 100% 30.19 in 0.8 mi Calm Calm - N/A   Clear
2:16 AM 53.6 °F 51.8 °F 94% 30.19 in 0.2 mi Calm Calm - N/A Fog Fog
2:53 AM 54.0 °F 52.0 °F 93% 30.19 in 0.2 mi Calm Calm - N/A Fog Fog
3:22 AM 53.6 °F 51.8 °F 94% 30.18 in 2.5 mi Calm Calm - N/A   Partly Cloudy
3:45 AM 53.6 °F 51.8 °F 94% 30.18 in 5.0 mi Calm Calm - N/A   Partly Cloudy
3:53 AM 53.1 °F 52.0 °F 96% 30.18 in 7.0 mi Calm Calm - N/A   Partly Cloudy
4:07 AM 53.6 °F 51.8 °F 94% 30.18 in 1.5 mi Calm Calm - N/A   Mostly Cloudy
4:15 AM 53.6 °F 51.8 °F 94% 30.18 in 0.2 mi Calm Calm - N/A Fog Fog
4:53 AM 51.8 °F 51.8 °F 100% 30.18 in 0.2 mi Calm Calm - N/A Fog Fog
5:20 AM 51.8 °F 50.0 °F 94% 30.18 in 0.2 mi Calm Calm - N/A Fog Fog
5:30 AM 51.8 °F 51.8 °F 100% 30.19 in 0.2 mi Calm Calm - N/A Fog Fog
5:39 AM 51.8 °F 50.0 °F 94% 30.19 in 0.2 mi Calm Calm - N/A Fog Fog
5:53 AM 52.0 °F 51.1 °F 97% 30.19 in 7.0 mi Calm Calm - N/A   Clear
6:53 AM 53.1 °F 52.0 °F 96% 30.20 in 7.0 mi Calm Calm - N/A   Clear
7:04 AM 51.8 °F 51.8 °F 100% 30.20 in 1.8 mi Calm Calm - N/A   Clear
7:11 AM 51.8 °F 51.8 °F 100% 30.20 in 7.0 mi Calm Calm - N/A   Clear
7:53 AM 51.8 °F 51.8 °F 100% 30.22 in 7.0 mi Calm Calm - N/A   Clear
8:53 AM 61.0 °F 57.0 °F 87% 30.24 in 7.0 mi Calm Calm - N/A   Clear
9:53 AM 64.0 °F 55.9 °F 75% 30.26 in 7.0 mi NNE 4.6 mph - N/A   Clear
10:53 AM 64.9 °F 55.0 °F 70% 30.26 in 6.0 mi NE 5.8 mph - N/A   Haze
11:53 AM 72.0 °F 51.1 °F 48% 30.24 in 10.0 mi ESE 4.6 mph - N/A   Clear
12:53 PM 73.9 °F 51.1 °F 45% 30.21 in 10.0 mi ENE 5.8 mph - N/A   Clear
1:53 PM 73.0 °F 48.9 °F 42% 30.19 in 10.0 mi NE 5.8 mph - N/A   Clear
2:53 PM 73.9 °F 52.0 °F 46% 30.18 in 10.0 mi NNE 4.6 mph - N/A   Clear
3:53 PM 77.0 °F 48.9 °F 37% 30.17 in 10.0 mi Calm Calm - N/A   Clear
4:53 PM 75.0 °F 50.0 °F 41% 30.18 in 10.0 mi NW 5.8 mph - N/A   Clear
5:53 PM 66.0 °F 50.0 °F 56% 30.19 in 10.0 mi WNW 5.8 mph - N/A   Clear
6:53 PM 62.1 °F 52.0 °F 70% 30.21 in 10.0 mi Calm Calm - N/A   Clear
7:53 PM 60.1 °F 53.1 °F 78% 30.22 in 10.0 mi Calm Calm - N/A   Clear
8:53 PM 63.0 °F 55.0 °F 75% 30.22 in 10.0 mi ENE 4.6 mph - N/A   Clear
9:53 PM 60.1 °F 55.0 °F 83% 30.23 in 10.0 mi ENE 3.5 mph - N/A   Clear
10:53 PM 62.1 °F 55.9 °F 80% 30.22 in 10.0 mi ENE 3.5 mph - N/A   Clear
11:53 PM 61.0 °F 55.9 °F 83% 30.20 in 10.0 mi ENE 3.5 mph - N/A   Clear